User: anonymous   Login
Location: Albany
(35.0000°S, 118.0000°E)
Time: 03:00:16
(UTC-04:00)
Language:

CZ-4B R/B - Orbit

View from above orbital plane
View from above orbital plane
View from above satellite
View from above satellite

Ground track
Ground track

The orbit data is extracted from the following two-line orbital elements,

1 33410U 08053C   14303.45194399  .00003557  00000-0  28382-3 0  9718
2 33410 097.6017 276.4138 0129187 172.7840 187.5280 14.94545074327041
Epoch (UTC): 30 October 2014 10:50:47
Eccentricity: 0.0129187
inclination: 97.6017°
perigee height: 494 km
apogee height: 674 km
right ascension of ascending node: 276.4138°
argument of perigee: 172.7840°
revolutions per day: 14.94545074
mean anomaly at epoch: 187.5280°
orbit number at epoch: 32704

The dashed part of the orbit path shows where the satellite is in the earth's shadow,  

DLR